Time,TemperatureF,DewpointF,PressureIn,WindDirection,WindDirectionDegrees,WindSpeedMPH,WindSpeedGustMPH,Humidity,HourlyPrecipIn,Conditions,Clouds,dailyrainin,SolarRadiationWatts/m^2,SoftwareType,DateUTC
2013-08-28 00:00:00,63.4,46.0,29.76,West,271,0.0,2.0,53,0.00,,,0.00,0,Wunderground v.1.15,2013-08-28 06:00:00,
2013-08-28 00:06:00,63.0,46.6,29.77,West,271,0.0,2.0,55,0.00,,,0.00,0,Wunderground v.1.15,2013-08-28 06:06:00,
2013-08-28 00:12:00,62.5,46.1,29.77,West,271,0.0,0.0,55,0.00,,,0.00,0,Wunderground v.1.15,2013-08-28 06:12:00,
2013-08-28 00:18:00,61.9,46.0,29.77,West,271,0.0,0.0,56,0.00,,,0.00,0,Wunderground v.1.15,2013-08-28 06:18:00,
2013-08-28 00:24:00,61.3,45.9,29.77,West,271,0.0,0.0,57,0.00,,,0.00,0,Wunderground v.1.15,2013-08-28 06:24:00,
2013-08-28 00:30:00,60.7,45.8,29.77,West,271,0.0,0.0,58,0.00,,,0.00,0,Wunderground v.1.15,2013-08-28 06:30:00,
2013-08-28 00:36:00,60.1,45.7,29.77,West,271,0.0,4.0,59,0.00,,,0.00,0,Wunderground v.1.15,2013-08-28 06:36:00,
2013-08-28 00:42:00,59.5,45.2,29.77,West,271,0.0,2.0,59,0.00,,,0.00,0,Wunderground v.1.15,2013-08-28 06:42:00,
2013-08-28 00:48:00,58.8,45.4,29.77,West,271,1.0,2.0,61,0.00,,,0.00,0,Wunderground v.1.15,2013-08-28 06:48:00,
2013-08-28 00:54:00,58.2,45.2,29.77,West,271,2.0,2.0,62,0.00,,,0.00,0,Wunderground v.1.15,2013-08-28 06:54:00,
2013-08-28 01:00:00,57.5,44.6,29.77,West,268,2.0,2.0,62,0.00,,,0.00,0,Wunderground v.1.15,2013-08-28 07:00:00,
2013-08-28 01:06:00,56.8,44.3,29.77,SW,234,3.0,4.0,63,0.00,,,0.00,0,Wunderground v.1.15,2013-08-28 07:06:00,
2013-08-28 01:14:00,56.3,44.3,29.77,SW,234,1.0,2.0,64,0.00,,,0.00,0,Wunderground v.1.15,2013-08-28 07:14:00,
2013-08-28 01:22:00,56.0,44.4,29.77,SW,234,0.0,0.0,65,0.00,,,0.00,0,Wunderground v.1.15,2013-08-28 07:22:00,
2013-08-28 01:28:00,56.0,44.4,29.77,SW,232,0.0,0.0,65,0.00,,,0.00,0,Wunderground v.1.15,2013-08-28 07:28:00,
2013-08-28 01:34:00,55.9,44.3,29.77,SW,232,0.0,0.0,65,0.00,,,0.00,0,Wunderground v.1.15,2013-08-28 07:34:00,
2013-08-28 01:42:00,55.9,44.7,29.77,SW,227,1.0,2.0,66,0.00,,,0.00,0,Wunderground v.1.15,2013-08-28 07:42:00,
2013-08-28 01:48:00,56.0,44.4,29.77,SW,225,1.0,2.0,65,0.00,,,0.00,0,Wunderground v.1.15,2013-08-28 07:48:00,
2013-08-28 01:56:00,56.1,44.9,29.77,SW,225,0.0,0.0,66,0.00,,,0.00,0,Wunderground v.1.15,2013-08-28 07:56:00,
2013-08-28 02:04:00,56.1,44.1,29.76,SW,224,2.0,2.0,64,0.00,,,0.00,0,Wunderground v.1.15,2013-08-28 08:04:00,
2013-08-28 02:10:00,56.2,44.2,29.76,SW,224,2.0,3.0,64,0.00,,,0.00,0,Wunderground v.1.15,2013-08-28 08:10:00,
2013-08-28 02:16:00,56.0,44.0,29.76,SW,225,2.0,5.0,64,0.00,,,0.00,0,Wunderground v.1.15,2013-08-28 08:16:00,
2013-08-28 02:22:00,55.4,43.8,29.76,SW,221,3.0,4.0,65,0.00,,,0.00,0,Wunderground v.1.15,2013-08-28 08:22:00,
2013-08-28 02:28:00,54.5,43.8,29.76,SSW,210,3.0,5.0,67,0.00,,,0.00,0,Wunderground v.1.15,2013-08-28 08:28:00,
2013-08-28 02:34:00,53.9,43.6,29.76,SSW,211,4.0,4.0,68,0.00,,,0.00,0,Wunderground v.1.15,2013-08-28 08:34:00,
2013-08-28 02:40:00,53.3,43.4,29.75,SSW,213,4.0,4.0,69,0.00,,,0.00,0,Wunderground v.1.15,2013-08-28 08:40:00,
2013-08-28 02:46:00,52.9,43.4,29.75,SSW,211,4.0,4.0,70,0.00,,,0.00,0,Wunderground v.1.15,2013-08-28 08:46:00,
2013-08-28 02:54:00,52.7,43.6,29.75,SW,215,4.0,5.0,71,0.00,,,0.00,0,Wunderground v.1.15,2013-08-28 08:54:00,
2013-08-28 03:00:00,52.7,43.6,29.75,SW,224,4.0,4.0,71,0.00,,,0.00,0,Wunderground v.1.15,2013-08-28 09:00:00,
2013-08-28 03:08:00,52.7,43.6,29.75,SW,222,3.0,4.0,71,0.00,,,0.00,0,Wunderground v.1.15,2013-08-28 09:08:00,
2013-08-28 03:14:00,52.8,43.3,29.75,SW,216,3.0,5.0,70,0.00,,,0.00,0,Wunderground v.1.15,2013-08-28 09:14:00,
2013-08-28 03:22:00,53.0,43.5,29.75,SW,216,4.0,4.0,70,0.00,,,0.00,0,Wunderground v.1.15,2013-08-28 09:22:00,
2013-08-28 03:28:00,53.3,43.4,29.75,WSW,242,3.0,4.0,69,0.00,,,0.00,0,Wunderground v.1.15,2013-08-28 09:28:00,
2013-08-28 03:34:00,53.5,43.6,29.74,SW,222,4.0,5.0,69,0.00,,,0.00,0,Wunderground v.1.15,2013-08-28 09:34:00,
2013-08-28 03:40:00,53.7,43.4,29.74,SSW,213,5.0,5.0,68,0.00,,,0.00,0,Wunderground v.1.15,2013-08-28 09:40:00,
2013-08-28 03:48:00,54.2,43.1,29.74,SSW,208,7.0,10.0,66,0.00,,,0.00,0,Wunderground v.1.15,2013-08-28 09:48:00,
2013-08-28 03:54:00,54.4,42.9,29.74,SW,217,6.0,6.0,65,0.00,,,0.00,0,Wunderground v.1.15,2013-08-28 09:54:00,
2013-08-28 04:02:00,54.5,43.4,29.74,SW,215,5.0,5.0,66,0.00,,,0.00,0,Wunderground v.1.15,2013-08-28 10:02:00,
2013-08-28 04:08:00,54.2,43.1,29.74,SW,215,4.0,5.0,66,0.00,,,0.00,0,Wunderground v.1.15,2013-08-28 10:08:00,
2013-08-28 04:14:00,53.9,42.8,29.74,SW,217,4.0,5.0,66,0.00,,,0.00,0,Wunderground v.1.15,2013-08-28 10:14:00,
2013-08-28 04:20:00,53.7,43.0,29.74,SSW,212,3.0,7.0,67,0.00,,,0.00,0,Wunderground v.1.15,2013-08-28 10:20:00,
2013-08-28 04:26:00,53.5,42.8,29.74,SSW,210,4.0,7.0,67,0.00,,,0.00,0,Wunderground v.1.15,2013-08-28 10:26:00,
2013-08-28 04:32:00,53.5,42.8,29.74,SSW,210,2.0,3.0,67,0.00,,,0.00,0,Wunderground v.1.15,2013-08-28 10:32:00,
2013-08-28 04:38:00,53.3,42.6,29.74,SSW,210,0.0,3.0,67,0.00,,,0.00,0,Wunderground v.1.15,2013-08-28 10:38:00,
2013-08-28 04:46:00,53.1,42.4,29.74,SSW,210,0.0,0.0,67,0.00,,,0.00,0,Wunderground v.1.15,2013-08-28 10:46:00,
2013-08-28 04:52:00,53.0,41.9,29.74,SSW,210,0.0,0.0,66,0.00,,,0.00,0,Wunderground v.1.15,2013-08-28 10:52:00,
2013-08-28 04:58:00,52.8,42.5,29.74,SSW,210,0.0,0.0,68,0.00,,,0.00,0,Wunderground v.1.15,2013-08-28 10:58:00,
2013-08-28 05:10:00,52.3,42.8,29.74,SSW,210,0.0,2.0,70,0.00,,,0.00,0,Wunderground v.1.15,2013-08-28 11:10:00,
2013-08-28 05:16:00,52.1,42.6,29.74,SSW,210,2.0,2.0,70,0.00,,,0.00,0,Wunderground v.1.15,2013-08-28 11:16:00,
2013-08-28 05:24:00,52.1,43.0,29.74,SSW,210,1.0,3.0,71,0.00,,,0.00,0,Wunderground v.1.15,2013-08-28 11:24:00,
2013-08-28 05:30:00,52.0,42.5,29.74,SSW,210,0.0,0.0,70,0.00,,,0.00,0,Wunderground v.1.15,2013-08-28 11:30:00,
2013-08-28 05:36:00,51.9,42.0,29.74,SSW,210,0.0,0.0,69,0.00,,,0.00,0,Wunderground v.1.15,2013-08-28 11:36:00,
2013-08-28 05:42:00,51.9,42.8,29.74,SSW,210,0.0,0.0,71,0.00,,,0.00,0,Wunderground v.1.15,2013-08-28 11:42:00,
2013-08-28 05:50:00,51.8,42.7,29.74,SSW,210,0.0,0.0,71,0.00,,,0.00,0,Wunderground v.1.15,2013-08-28 11:50:00,
2013-08-28 05:56:00,51.6,42.5,29.74,SSW,210,0.0,0.0,71,0.00,,,0.00,0,Wunderground v.1.15,2013-08-28 11:56:00,
2013-08-28 06:02:00,51.5,42.4,29.74,SSW,210,0.0,1.0,71,0.00,,,0.00,0,Wunderground v.1.15,2013-08-28 12:02:00,
2013-08-28 06:08:00,51.4,42.3,29.74,SSW,210,1.0,2.0,71,0.00,,,0.00,0,Wunderground v.1.15,2013-08-28 12:08:00,
2013-08-28 06:14:00,51.4,42.7,29.74,SSW,210,1.0,3.0,72,0.00,,,0.00,0,Wunderground v.1.15,2013-08-28 12:14:00,
2013-08-28 06:20:00,51.4,42.3,29.74,SSW,210,1.0,1.0,71,0.00,,,0.00,0,Wunderground v.1.15,2013-08-28 12:20:00,
2013-08-28 06:26:00,51.7,42.6,29.74,SSW,211,3.0,5.0,71,0.00,,,0.00,0,Wunderground v.1.15,2013-08-28 12:26:00,
2013-08-28 06:32:00,52.2,43.1,29.74,SSW,205,5.0,6.0,71,0.00,,,0.00,0,Wunderground v.1.15,2013-08-28 12:32:00,
2013-08-28 06:38:00,52.5,43.0,29.74,SSW,211,6.0,10.0,70,0.00,,,0.00,0,Wunderground v.1.15,2013-08-28 12:38:00,
2013-08-28 06:44:00,52.9,43.0,29.74,SSW,211,7.0,7.0,69,0.00,,,0.00,7,Wunderground v.1.15,2013-08-28 12:44:00,
2013-08-28 06:50:00,53.2,42.9,29.75,SSW,205,7.0,7.0,68,0.00,,,0.00,12,Wunderground v.1.15,2013-08-28 12:50:00,
2013-08-28 06:56:00,53.5,42.8,29.74,SSW,198,7.0,9.0,67,0.00,,,0.00,14,Wunderground v.1.15,2013-08-28 12:56:00,
2013-08-28 07:04:00,53.9,42.8,29.74,SSW,208,8.0,8.0,66,0.00,,,0.00,18,Wunderground v.1.15,2013-08-28 13:04:00,
2013-08-28 07:10:00,54.1,42.6,29.74,SSW,200,8.0,8.0,65,0.00,,,0.00,28,Wunderground v.1.15,2013-08-28 13:10:00,
2013-08-28 07:16:00,54.4,42.9,29.74,SSW,205,7.0,10.0,65,0.00,,,0.00,37,Wunderground v.1.15,2013-08-28 13:16:00,
2013-08-28 07:22:00,54.8,43.3,29.74,SSW,208,6.0,7.0,65,0.00,,,0.00,47,Wunderground v.1.15,2013-08-28 13:22:00,
2013-08-28 07:30:00,55.7,43.7,29.74,SW,215,7.0,7.0,64,0.00,,,0.00,77,Wunderground v.1.15,2013-08-28 13:30:00,
2013-08-28 07:36:00,56.6,44.6,29.74,SSW,197,7.0,8.0,64,0.00,,,0.00,97,Wunderground v.1.15,2013-08-28 13:36:00,
2013-08-28 07:46:00,58.3,45.3,29.74,South,185,8.0,9.0,62,0.00,,,0.00,134,Wunderground v.1.15,2013-08-28 13:46:00,
2013-08-28 07:54:00,59.9,45.5,29.74,SSW,211,7.0,7.0,59,0.00,,,0.00,171,Wunderground v.1.15,2013-08-28 13:54:00,
2013-08-28 08:00:00,61.0,46.6,29.74,SSW,192,7.0,7.0,59,0.00,,,0.00,190,Wunderground v.1.15,2013-08-28 14:00:00,
2013-08-28 08:06:00,62.1,47.1,29.73,SSW,203,7.0,7.0,58,0.00,,,0.00,190,Wunderground v.1.15,2013-08-28 14:06:00,
2013-08-28 08:12:00,63.1,46.7,29.74,SW,216,7.0,7.0,55,0.00,,,0.00,192,Wunderground v.1.15,2013-08-28 14:12:00,
2013-08-28 08:18:00,63.7,47.2,29.74,WSW,240,6.0,6.0,55,0.00,,,0.00,213,Wunderground v.1.15,2013-08-28 14:18:00,
2013-08-28 08:24:00,64.3,47.8,29.74,SSW,204,5.0,7.0,55,0.00,,,0.00,227,Wunderground v.1.15,2013-08-28 14:24:00,
2013-08-28 08:32:00,65.1,48.0,29.74,SW,219,5.0,6.0,54,0.00,,,0.00,258,Wunderground v.1.15,2013-08-28 14:32:00,
2013-08-28 08:38:00,65.9,50.2,29.73,South,178,4.0,10.0,57,0.00,,,0.00,294,Wunderground v.1.15,2013-08-28 14:38:00,
2013-08-28 08:44:00,67.8,50.5,29.72,SSE,161,7.0,11.0,54,0.00,,,0.00,316,Wunderground v.1.15,2013-08-28 14:44:00,
2013-08-28 08:50:00,69.5,51.1,29.73,South,178,9.0,10.0,52,0.00,,,0.00,387,Wunderground v.1.15,2013-08-28 14:50:00,
2013-08-28 08:56:00,70.5,50.4,29.72,South,182,10.0,12.0,49,0.00,,,0.00,410,Wunderground v.1.15,2013-08-28 14:56:00,
2013-08-28 09:02:00,71.6,50.3,29.72,SSE,167,11.0,14.0,47,0.00,,,0.00,373,Wunderground v.1.15,2013-08-28 15:02:00,
2013-08-28 09:08:00,72.2,50.3,29.72,SSE,149,12.0,14.0,46,0.00,,,0.00,424,Wunderground v.1.15,2013-08-28 15:08:00,
2013-08-28 09:14:00,72.9,51.5,29.72,South,171,11.0,16.0,47,0.00,,,0.00,432,Wunderground v.1.15,2013-08-28 15:14:00,
2013-08-28 09:20:00,73.5,50.9,29.72,SSE,168,12.0,12.0,45,0.00,,,0.00,415,Wunderground v.1.15,2013-08-28 15:20:00,
2013-08-28 09:26:00,73.9,51.2,29.72,SSE,165,13.0,16.0,45,0.00,,,0.00,427,Wunderground v.1.15,2013-08-28 15:26:00,
2013-08-28 09:32:00,74.2,51.5,29.72,SSE,148,13.0,17.0,45,0.00,,,0.00,464,Wunderground v.1.15,2013-08-28 15:32:00,
2013-08-28 09:38:00,74.6,51.2,29.72,SE,146,14.0,17.0,44,0.00,,,0.00,506,Wunderground v.1.15,2013-08-28 15:38:00,
2013-08-28 09:50:00,75.4,52.0,29.72,SE,145,13.0,13.0,44,0.00,,,0.00,548,Wunderground v.1.15,2013-08-28 15:50:00,
2013-08-28 09:56:00,75.7,51.6,29.72,South,171,13.0,15.0,43,0.00,,,0.00,504,Wunderground v.1.15,2013-08-28 15:56:00,
2013-08-28 10:02:00,76.1,52.0,29.72,SE,141,13.0,17.0,43,0.00,,,0.00,555,Wunderground v.1.15,2013-08-28 16:02:00,
2013-08-28 10:08:00,76.6,51.8,29.72,SSE,156,12.0,17.0,42,0.00,,,0.00,561,Wunderground v.1.15,2013-08-28 16:08:00,
2013-08-28 10:14:00,77.1,52.2,29.71,South,184,12.0,18.0,42,0.00,,,0.00,568,Wunderground v.1.15,2013-08-28 16:14:00,
2013-08-28 10:20:00,77.5,52.6,29.71,South,176,14.0,14.0,42,0.00,,,0.00,584,Wunderground v.1.15,2013-08-28 16:20:00,
2013-08-28 10:26:00,77.9,52.3,29.71,South,173,13.0,18.0,41,0.00,,,0.00,592,Wunderground v.1.15,2013-08-28 16:26:00,
2013-08-28 10:32:00,78.3,52.0,29.71,South,173,14.0,18.0,40,0.00,,,0.00,601,Wunderground v.1.15,2013-08-28 16:32:00,
2013-08-28 10:38:00,78.6,52.3,29.71,South,181,15.0,18.0,40,0.00,,,0.00,622,Wunderground v.1.15,2013-08-28 16:38:00,
2013-08-28 10:44:00,78.8,52.4,29.71,SSE,167,15.0,15.0,40,0.00,,,0.00,645,Wunderground v.1.15,2013-08-28 16:44:00,
2013-08-28 10:50:00,79.2,52.1,29.72,SSE,154,15.0,15.0,39,0.00,,,0.00,661,Wunderground v.1.15,2013-08-28 16:50:00,
2013-08-28 10:56:00,79.2,52.1,29.71,SSE,158,15.0,20.0,39,0.00,,,0.00,679,Wunderground v.1.15,2013-08-28 16:56:00,
2013-08-28 11:02:00,79.4,52.3,29.71,South,175,13.0,13.0,39,0.00,,,0.00,708,Wunderground v.1.15,2013-08-28 17:02:00,
2013-08-28 11:08:00,79.5,52.4,29.71,SSW,199,12.0,13.0,39,0.00,,,0.00,415,Wunderground v.1.15,2013-08-28 17:08:00,
2013-08-28 11:14:00,79.6,53.1,29.71,SE,133,12.0,18.0,40,0.00,,,0.00,729,Wunderground v.1.15,2013-08-28 17:14:00,
2013-08-28 11:20:00,80.2,53.0,29.71,SSE,157,12.0,12.0,39,0.00,,,0.00,733,Wunderground v.1.15,2013-08-28 17:20:00,
2013-08-28 11:26:00,80.6,52.6,29.71,SSE,163,11.0,12.0,38,0.00,,,0.00,592,Wunderground v.1.15,2013-08-28 17:26:00,
2013-08-28 11:32:00,81.4,54.1,29.71,SSW,205,10.0,13.0,39,0.00,,,0.00,821,Wunderground v.1.15,2013-08-28 17:32:00,
2013-08-28 11:38:00,82.0,54.6,29.71,SW,218,8.0,13.0,39,0.00,,,0.00,619,Wunderground v.1.15,2013-08-28 17:38:00,
2013-08-28 11:44:00,82.5,53.6,29.72,WNW,290,6.0,9.0,37,0.00,,,0.00,708,Wunderground v.1.15,2013-08-28 17:44:00,
2013-08-28 11:52:00,80.6,50.4,29.72,WNW,294,13.0,19.0,35,0.00,,,0.00,156,Wunderground v.1.15,2013-08-28 17:52:00,
2013-08-28 11:58:00,77.6,50.7,29.72,WNW,292,16.0,21.0,39,0.00,,,0.00,113,Wunderground v.1.15,2013-08-28 17:58:00,
2013-08-28 12:04:00,75.6,50.2,29.72,WNW,291,16.0,21.0,41,0.00,,,0.00,90,Wunderground v.1.15,2013-08-28 18:04:00,
2013-08-28 12:10:00,74.3,49.7,29.72,WNW,289,15.0,15.0,42,0.00,,,0.00,81,Wunderground v.1.15,2013-08-28 18:10:00,
2013-08-28 12:18:00,73.2,49.4,29.73,WNW,295,15.0,17.0,43,0.00,,,0.00,77,Wunderground v.1.15,2013-08-28 18:18:00,
2013-08-28 12:24:00,72.7,48.9,29.74,West,273,16.0,16.0,43,0.00,,,0.00,40,Wunderground v.1.15,2013-08-28 18:24:00,
2013-08-28 12:32:00,72.2,48.5,29.75,NNW,338,13.0,13.0,43,0.00,,,0.00,33,Wunderground v.1.15,2013-08-28 18:32:00,
2013-08-28 12:38:00,71.9,48.8,29.76,North,5,8.0,13.0,44,0.00,,,0.00,25,Wunderground v.1.15,2013-08-28 18:38:00,
2013-08-28 12:46:00,70.0,53.1,29.76,NNE,24,8.0,8.0,55,0.00,,,0.00,26,Wunderground v.1.15,2013-08-28 18:46:00,
2013-08-28 12:52:00,66.3,51.1,29.76,ENE,57,11.0,11.0,58,0.00,,,0.00,44,Wunderground v.1.15,2013-08-28 18:52:00,
2013-08-28 12:58:00,64.7,51.4,29.77,ESE,111,11.0,12.0,62,0.00,,,0.00,33,Wunderground v.1.15,2013-08-28 18:58:00,
2013-08-28 13:04:00,63.9,51.9,29.78,ENE,72,7.0,13.0,65,0.00,,,0.00,26,Wunderground v.1.15,2013-08-28 19:04:00,
2013-08-28 13:10:00,63.3,52.2,29.78,NE,55,6.0,7.0,67,0.00,,,0.00,35,Wunderground v.1.15,2013-08-28 19:10:00,
2013-08-28 13:16:00,63.0,52.7,29.79,NE,46,6.0,7.0,69,0.00,,,0.00,26,Wunderground v.1.15,2013-08-28 19:16:00,
2013-08-28 13:24:00,62.7,53.2,29.80,NE,55,3.0,5.0,71,0.00,,,0.00,19,Wunderground v.1.15,2013-08-28 19:24:00,
2013-08-28 13:30:00,62.6,53.4,29.82,NE,55,1.0,1.0,72,0.00,,,0.00,16,Wunderground v.1.15,2013-08-28 19:30:00,
2013-08-28 13:36:00,62.5,55.5,29.84,WNW,282,1.0,6.0,78,0.00,,,0.00,16,Wunderground v.1.15,2013-08-28 19:36:00,
2013-08-28 13:42:00,62.2,55.3,29.84,WNW,293,2.0,2.0,78,0.00,,,0.00,26,Wunderground v.1.15,2013-08-28 19:42:00,
2013-08-28 13:48:00,61.8,55.2,29.83,WNW,294,0.0,2.0,79,0.00,,,0.00,51,Wunderground v.1.15,2013-08-28 19:48:00,
2013-08-28 13:56:00,61.3,55.8,29.82,WNW,289,0.0,0.0,82,0.00,,,0.00,107,Wunderground v.1.15,2013-08-28 19:56:00,
2013-08-28 14:02:00,60.8,55.3,29.83,SE,129,1.0,6.0,82,0.00,,,0.00,151,Wunderground v.1.15,2013-08-28 20:02:00,
2013-08-28 14:08:00,60.5,55.6,29.83,SE,129,2.0,6.0,84,0.00,,,0.00,139,Wunderground v.1.15,2013-08-28 20:08:00,
2013-08-28 14:20:00,60.5,56.3,29.83,ESE,123,1.0,1.0,86,0.00,,,0.01,183,Wunderground v.1.15,2013-08-28 20:20:00,
2013-08-28 14:26:00,60.8,56.9,29.83,ESE,123,0.0,1.0,87,0.00,,,0.01,186,Wunderground v.1.15,2013-08-28 20:26:00,
2013-08-28 14:32:00,61.1,57.5,29.83,South,177,1.0,4.0,88,0.00,,,0.01,216,Wunderground v.1.15,2013-08-28 20:32:00,
2013-08-28 14:38:00,61.4,57.2,29.82,South,178,3.0,4.0,86,0.00,,,0.01,211,Wunderground v.1.15,2013-08-28 20:38:00,
2013-08-28 14:44:00,61.6,57.0,29.82,South,178,3.0,4.0,85,0.00,,,0.01,258,Wunderground v.1.15,2013-08-28 20:44:00,
2013-08-28 14:50:00,61.9,57.3,29.81,South,178,1.0,3.0,85,0.00,,,0.01,353,Wunderground v.1.15,2013-08-28 20:50:00,
2013-08-28 14:56:00,62.3,57.4,29.82,South,170,2.0,6.0,84,0.00,,,0.01,306,Wunderground v.1.15,2013-08-28 20:56:00,
2013-08-28 15:02:00,62.8,57.2,29.82,SSE,158,3.0,3.0,82,0.00,,,0.01,332,Wunderground v.1.15,2013-08-28 21:02:00,
2013-08-28 15:08:00,63.2,56.6,29.81,SSE,158,1.0,3.0,79,0.00,,,0.01,250,Wunderground v.1.15,2013-08-28 21:08:00,
2013-08-28 15:14:00,63.8,57.5,29.81,SSE,158,1.0,1.0,80,0.00,,,0.02,803,Wunderground v.1.15,2013-08-28 21:14:00,
2013-08-28 15:20:00,64.7,57.7,29.81,SSW,192,1.0,3.0,78,0.00,,,0.02,798,Wunderground v.1.15,2013-08-28 21:20:00,
2013-08-28 15:26:00,65.8,56.5,29.81,SSW,196,3.0,6.0,72,0.00,,,0.02,775,Wunderground v.1.15,2013-08-28 21:26:00,
2013-08-28 15:32:00,66.8,57.9,29.80,South,171,4.0,7.0,73,0.00,,,0.02,761,Wunderground v.1.15,2013-08-28 21:32:00,
2013-08-28 15:38:00,67.7,58.0,29.80,South,170,4.0,7.0,71,0.00,,,0.02,751,Wunderground v.1.15,2013-08-28 21:38:00,
2013-08-28 15:44:00,68.5,57.5,29.80,SE,142,3.0,5.0,68,0.00,,,0.02,742,Wunderground v.1.15,2013-08-28 21:44:00,
2013-08-28 15:50:00,69.2,56.9,29.80,SSE,157,4.0,4.0,65,0.00,,,0.02,731,Wunderground v.1.15,2013-08-28 21:50:00,
2013-08-28 15:56:00,69.8,57.9,29.79,SE,137,3.0,4.0,66,0.00,,,0.02,719,Wunderground v.1.15,2013-08-28 21:56:00,
2013-08-28 16:02:00,70.6,59.1,29.79,South,182,5.0,9.0,67,0.00,,,0.02,701,Wunderground v.1.15,2013-08-28 22:02:00,
2013-08-28 16:08:00,71.3,58.9,29.79,South,176,4.0,9.0,65,0.00,,,0.02,691,Wunderground v.1.15,2013-08-28 22:08:00,
2013-08-28 16:14:00,71.6,57.4,29.79,South,169,4.0,7.0,61,0.00,,,0.02,679,Wunderground v.1.15,2013-08-28 22:14:00,
2013-08-28 16:20:00,71.9,58.6,29.79,SSE,166,5.0,6.0,63,0.00,,,0.02,666,Wunderground v.1.15,2013-08-28 22:20:00,
2013-08-28 16:26:00,72.1,58.4,29.78,SSE,157,5.0,6.0,62,0.00,,,0.02,647,Wunderground v.1.15,2013-08-28 22:26:00,
2013-08-28 16:32:00,72.5,58.3,29.78,South,175,7.0,10.0,61,0.00,,,0.02,629,Wunderground v.1.15,2013-08-28 22:32:00,
2013-08-28 16:38:00,73.0,58.3,29.78,South,186,8.0,10.0,60,0.00,,,0.02,617,Wunderground v.1.15,2013-08-28 22:38:00,
2013-08-28 16:44:00,73.7,58.0,29.78,WSW,238,8.0,11.0,58,0.00,,,0.02,591,Wunderground v.1.15,2013-08-28 22:44:00,
2013-08-28 16:50:00,74.1,57.9,29.78,South,175,8.0,9.0,57,0.00,,,0.03,573,Wunderground v.1.15,2013-08-28 22:50:00,
2013-08-28 16:56:00,74.5,58.3,29.78,SSW,194,8.0,11.0,57,0.00,,,0.03,554,Wunderground v.1.15,2013-08-28 22:56:00,
2013-08-28 17:02:00,74.8,58.1,29.77,SSW,200,9.0,12.0,56,0.00,,,0.03,533,Wunderground v.1.15,2013-08-28 23:02:00,
2013-08-28 17:08:00,75.1,57.8,29.78,South,181,9.0,12.0,55,0.00,,,0.03,515,Wunderground v.1.15,2013-08-28 23:08:00,
2013-08-28 17:14:00,75.3,57.5,29.78,South,172,7.0,10.0,54,0.00,,,0.03,497,Wunderground v.1.15,2013-08-28 23:14:00,
2013-08-28 17:20:00,75.5,56.6,29.77,SSE,165,7.0,9.0,52,0.00,,,0.03,471,Wunderground v.1.15,2013-08-28 23:20:00,
2013-08-28 17:30:00,75.3,54.8,29.77,SSE,149,8.0,8.0,49,0.00,,,0.03,439,Wunderground v.1.15,2013-08-28 23:30:00,
2013-08-28 17:36:00,75.4,54.9,29.77,SSE,159,8.0,10.0,49,0.00,,,0.03,415,Wunderground v.1.15,2013-08-28 23:36:00,
2013-08-28 17:42:00,75.4,55.5,29.77,SSE,159,9.0,9.0,50,0.00,,,0.03,403,Wunderground v.1.15,2013-08-28 23:42:00,
2013-08-28 17:48:00,75.4,54.9,29.77,SSW,199,8.0,10.0,49,0.00,,,0.03,396,Wunderground v.1.15,2013-08-28 23:48:00,
2013-08-28 17:54:00,75.5,56.1,29.77,SSE,154,8.0,9.0,51,0.00,,,0.03,373,Wunderground v.1.15,2013-08-28 23:54:00,
2013-08-28 18:00:00,75.6,55.6,29.77,South,177,7.0,7.0,50,0.00,,,0.03,341,Wunderground v.1.15,2013-08-29 00:00:00,
2013-08-28 18:06:00,75.7,55.2,29.77,SSW,201,6.0,7.0,49,0.00,,,0.03,318,Wunderground v.1.15,2013-08-29 00:06:00,
2013-08-28 18:12:00,75.8,55.3,29.77,South,183,6.0,9.0,49,0.00,,,0.03,302,Wunderground v.1.15,2013-08-29 00:12:00,
2013-08-28 18:18:00,75.8,55.8,29.77,South,174,6.0,9.0,50,0.00,,,0.03,283,Wunderground v.1.15,2013-08-29 00:18:00,
2013-08-28 18:24:00,75.7,54.6,29.77,SSW,198,6.0,8.0,48,0.00,,,0.03,267,Wunderground v.1.15,2013-08-29 00:24:00,
2013-08-28 18:30:00,75.6,55.1,29.77,South,175,6.0,6.0,49,0.00,,,0.04,241,Wunderground v.1.15,2013-08-29 00:30:00,
2013-08-28 18:38:00,75.3,54.8,29.77,South,188,6.0,6.0,49,0.00,,,0.04,202,Wunderground v.1.15,2013-08-29 00:38:00,
2013-08-28 18:52:00,75.0,54.0,29.78,South,178,4.0,6.0,48,0.00,,,0.04,162,Wunderground v.1.15,2013-08-29 00:52:00,
2013-08-28 19:02:00,74.7,54.3,29.78,SSW,193,5.0,5.0,49,0.00,,,0.04,139,Wunderground v.1.15,2013-08-29 01:02:00,
2013-08-28 19:10:00,74.4,54.0,29.78,South,179,4.0,4.0,49,0.00,,,0.04,109,Wunderground v.1.15,2013-08-29 01:10:00,
2013-08-28 19:22:00,73.9,54.1,29.78,South,171,4.0,4.0,50,0.00,,,0.04,95,Wunderground v.1.15,2013-08-29 01:22:00,
2013-08-28 19:30:00,73.6,53.8,29.78,South,185,3.0,7.0,50,0.00,,,0.04,76,Wunderground v.1.15,2013-08-29 01:30:00,
2013-08-28 19:36:00,73.3,53.5,29.78,South,171,3.0,3.0,50,0.00,,,0.04,63,Wunderground v.1.15,2013-08-29 01:36:00,
2013-08-28 19:42:00,73.1,53.4,29.78,South,171,3.0,6.0,50,0.00,,,0.04,51,Wunderground v.1.15,2013-08-29 01:42:00,
2013-08-28 19:48:00,72.8,53.1,29.79,South,182,3.0,5.0,50,0.00,,,0.04,39,Wunderground v.1.15,2013-08-29 01:48:00,
2013-08-28 19:54:00,72.5,53.3,29.79,South,185,2.0,2.0,51,0.00,,,0.04,28,Wunderground v.1.15,2013-08-29 01:54:00,
2013-08-28 20:00:00,72.2,53.1,29.79,South,180,1.0,1.0,51,0.00,,,0.04,19,Wunderground v.1.15,2013-08-29 02:00:00,
2013-08-28 20:06:00,71.7,53.1,29.79,South,180,0.0,1.0,52,0.00,,,0.04,12,Wunderground v.1.15,2013-08-29 02:06:00,
2013-08-28 20:12:00,71.1,55.6,29.79,SSW,202,0.0,0.0,58,0.00,,,0.04,7,Wunderground v.1.15,2013-08-29 02:12:00,
2013-08-28 20:18:00,70.1,55.1,29.79,SSW,202,1.0,4.0,59,0.00,,,0.04,0,Wunderground v.1.15,2013-08-29 02:18:00,
2013-08-28 20:24:00,68.9,55.3,29.79,SSW,203,3.0,5.0,62,0.00,,,0.04,0,Wunderground v.1.15,2013-08-29 02:24:00,
2013-08-28 20:30:00,67.7,55.5,29.80,SSW,209,3.0,3.0,65,0.00,,,0.04,0,Wunderground v.1.15,2013-08-29 02:30:00,
2013-08-28 20:36:00,66.8,55.1,29.80,SW,217,2.0,6.0,66,0.00,,,0.04,0,Wunderground v.1.15,2013-08-29 02:36:00,
2013-08-28 20:42:00,65.9,54.2,29.80,SSW,194,4.0,4.0,66,0.00,,,0.04,0,Wunderground v.1.15,2013-08-29 02:42:00,
2013-08-28 20:48:00,65.4,53.3,29.80,South,179,3.0,4.0,65,0.00,,,0.04,0,Wunderground v.1.15,2013-08-29 02:48:00,
2013-08-28 20:54:00,65.1,53.0,29.81,South,179,1.0,2.0,65,0.00,,,0.04,0,Wunderground v.1.15,2013-08-29 02:54:00,
2013-08-28 21:00:00,64.8,53.2,29.81,South,179,0.0,0.0,66,0.00,,,0.04,0,Wunderground v.1.15,2013-08-29 03:00:00,
2013-08-28 21:06:00,64.5,54.5,29.81,South,182,0.0,0.0,70,0.00,,,0.04,0,Wunderground v.1.15,2013-08-29 03:06:00,
2013-08-28 21:12:00,64.1,53.7,29.82,South,183,0.0,0.0,69,0.00,,,0.04,0,Wunderground v.1.15,2013-08-29 03:12:00,
2013-08-28 21:18:00,63.7,53.3,29.82,SW,216,1.0,3.0,69,0.00,,,0.04,0,Wunderground v.1.15,2013-08-29 03:18:00,
2013-08-28 21:24:00,63.3,53.7,29.82,SW,215,3.0,6.0,71,0.00,,,0.04,0,Wunderground v.1.15,2013-08-29 03:24:00,
2013-08-28 21:30:00,62.9,53.4,29.82,SW,214,3.0,4.0,71,0.00,,,0.04,0,Wunderground v.1.15,2013-08-29 03:30:00,
2013-08-28 21:36:00,62.4,52.9,29.83,SW,214,1.0,4.0,71,0.00,,,0.04,0,Wunderground v.1.15,2013-08-29 03:36:00,
2013-08-28 21:42:00,61.9,52.8,29.83,SW,214,1.0,3.0,72,0.00,,,0.04,0,Wunderground v.1.15,2013-08-29 03:42:00,
2013-08-28 21:48:00,61.6,52.5,29.83,SW,214,1.0,3.0,72,0.00,,,0.04,0,Wunderground v.1.15,2013-08-29 03:48:00,
2013-08-28 21:54:00,61.4,52.3,29.83,SW,214,0.0,1.0,72,0.00,,,0.04,0,Wunderground v.1.15,2013-08-29 03:54:00,
2013-08-28 22:00:00,61.3,52.9,29.83,SW,236,1.0,3.0,74,0.00,,,0.04,0,Wunderground v.1.15,2013-08-29 04:00:00,
2013-08-28 22:02:00,61.2,52.8,29.83,SW,234,1.0,3.0,74,0.00,,,0.04,0,Wunderground v.1.15,2013-08-29 04:02:00,
2013-08-28 22:04:00,61.1,52.7,29.83,SW,234,1.0,3.0,74,0.00,,,0.05,0,Wunderground v.1.15,2013-08-29 04:04:00,
2013-08-28 22:06:00,60.9,52.6,29.83,SW,234,2.0,3.0,74,0.00,,,0.05,0,Wunderground v.1.15,2013-08-29 04:06:00,
2013-08-28 22:08:00,60.8,52.8,29.83,SW,233,2.0,4.0,75,0.00,,,0.05,0,Wunderground v.1.15,2013-08-29 04:08:00,
2013-08-28 22:14:00,60.5,52.9,29.83,SW,234,2.0,4.0,76,0.00,,,0.05,0,Wunderground v.1.15,2013-08-29 04:14:00,
2013-08-28 22:18:00,60.3,53.1,29.84,SW,235,2.0,4.0,77,0.00,,,0.05,0,Wunderground v.1.15,2013-08-29 04:18:00,
2013-08-28 22:24:00,60.0,53.1,29.84,SW,231,3.0,4.0,78,0.00,,,0.05,0,Wunderground v.1.15,2013-08-29 04:24:00,
2013-08-28 22:30:00,59.8,53.3,29.84,SW,221,3.0,3.0,79,0.00,,,0.05,0,Wunderground v.1.15,2013-08-29 04:30:00,
2013-08-28 22:36:00,59.6,52.7,29.84,SW,219,3.0,3.0,78,0.00,,,0.05,0,Wunderground v.1.15,2013-08-29 04:36:00,
2013-08-28 22:42:00,59.3,52.4,29.84,WSW,243,3.0,5.0,78,0.00,,,0.05,0,Wunderground v.1.15,2013-08-29 04:42:00,
2013-08-28 22:48:00,59.0,51.8,29.84,WSW,243,2.0,5.0,77,0.00,,,0.05,0,Wunderground v.1.15,2013-08-29 04:48:00,
2013-08-28 22:54:00,58.6,52.1,29.85,WSW,244,1.0,5.0,79,0.00,,,0.05,0,Wunderground v.1.15,2013-08-29 04:54:00,
2013-08-28 23:00:00,58.2,51.7,29.85,WSW,246,3.0,3.0,79,0.00,,,0.05,0,Wunderground v.1.15,2013-08-29 05:00:00,
2013-08-28 23:06:00,57.8,51.3,29.85,SW,223,4.0,5.0,79,0.00,,,0.05,0,Wunderground v.1.15,2013-08-29 05:06:00,
2013-08-28 23:12:00,57.5,51.4,29.85,SW,222,3.0,5.0,80,0.00,,,0.05,0,Wunderground v.1.15,2013-08-29 05:12:00,
2013-08-28 23:18:00,57.4,51.6,29.85,SW,223,3.0,5.0,81,0.00,,,0.05,0,Wunderground v.1.15,2013-08-29 05:18:00,
2013-08-28 23:24:00,57.2,51.4,29.85,SW,219,3.0,5.0,81,0.00,,,0.05,0,Wunderground v.1.15,2013-08-29 05:24:00,
2013-08-28 23:30:00,57.1,51.0,29.85,SW,216,4.0,5.0,80,0.00,,,0.05,0,Wunderground v.1.15,2013-08-29 05:30:00,
2013-08-28 23:36:00,56.9,51.5,29.85,SW,216,5.0,5.0,82,0.00,,,0.05,0,Wunderground v.1.15,2013-08-29 05:36:00,
2013-08-28 23:42:00,56.8,52.0,29.86,SSW,213,4.0,6.0,84,0.00,,,0.05,0,Wunderground v.1.15,2013-08-29 05:42:00,
2013-08-28 23:48:00,56.8,52.0,29.86,SSW,213,4.0,6.0,84,0.00,,,0.05,0,Wunderground v.1.15,2013-08-29 05:48:00,
2013-08-28 23:54:00,56.7,51.3,29.86,SW,216,4.0,6.0,82,0.00,,,0.05,0,Wunderground v.1.15,2013-08-29 05:54:00,